Location: Fayetteville
(35.0530°N, 78.8790°W)
Time: 21:34:10
(UTC-04:00)

ISS - Visible Passes

Search period start: 24 July 2014 00:00
Search period end: 03 August 2014 00:00
Orbit: 411 x 419 km, 51.6° (Epoch: 24 July)

Date Brightness Start Highest point End Pass type
(mag) Time Alt. Az. Time Alt. Az. Time Alt. Az.
24 Jul 0.0 03:01:31 13° N 03:01:31 13° N 03:02:10 10° NNE visible
29 Jul 0.1 05:25:40 10° N 05:26:49 11° NNE 05:27:58 10° NE visible
31 Jul -0.6 05:23:56 10° NNW 05:26:41 23° NNE 05:29:26 10° E visible
01 Aug -0.1 04:35:51 10° N 04:37:56 15° NNE 04:40:01 10° ENE visible
01 Aug -1.9 21:16:03 10° S 21:18:24 19° SE 21:18:24 19° SE visible
02 Aug 0.3 03:48:17 10° N 03:49:09 11° NNE 03:50:00 10° NE visible
02 Aug -2.7 05:23:06 10° NW 05:26:27 63° NE 05:29:46 10° ESE visible
02 Aug -2.8 22:03:12 10° WSW 22:06:29 61° NW 22:09:43 11° NE visible
